Flag for U.S.A. Weather past 2 weeks in Dayton, Ohio, U.S.A.

Now
72 °F

Scattered clouds.


Feels Like: 75 °F
Forecast: 60 / 72 °F
Wind: 10 mph from Northwest

Location: Dayton / Wright-Patterson Air Force Base

Current Time: Jul 28, 2014 at 3:13:39 PM

Latest Report: Jul 28, 2014 at 1:58 PM


Visibility: 10 mi

Pressure: 29.93 "Hg

Humidity: 67%

Dew point: 60 °F

Location of DaytonLocation

Historic Weather in Dayton — Graph

°F

Dayton temperature yesterday

Maximum temperature yesterday: 79 °F (at 2:58 PM)
Minimum temperature yesterday: 69 °F (at 6:58 AM)
Average temperature yesterday: 74 °F

Past Weeks' High & Low Weather Summary

 TemperatureHumidityPressure
High88 °F (Jul 13, 3:58 PM)100% (Jul 14, 1:58 AM)30.21 "Hg (Jul 14, 1:58 AM)
Low52 °F (Jul 17, 4:58 AM)41% (Jul 17, 3:58 PM)29.69 "Hg (Jul 27, 5:58 PM)
Average69 °F78%30.00 "Hg
* Reported Jul 13 1:58 PM — Jul 28 1:58 PM, Dayton, Weather by CustomWeather, © 2014

Note: Actual official high and low records may vary slightly from our data, if they occured in-between our weather recording intervals... More about our weather records

Advertising

Dayton weather history for previous 24 hours

 ConditionsComfort  
Time TempWeatherWind HumidityBarometerVisibility
1:58 PM
Jul 28
72 °FScattered clouds.10 mph67%29.93 "Hg10 mi
12:58 PM69 °FBroken clouds.8 mph74%29.93 "Hg10 mi
11:58 AM69 °FBroken clouds.10 mph76%29.93 "Hg10 mi
10:58 AM66 °FBroken clouds.12 mph81%29.91 "Hg10 mi
9:58 AM66 °FBroken clouds.8 mph83%29.90 "Hg10 mi
8:58 AM65 °FOvercast.10 mph83%29.88 "Hg5 mi
7:58 AM64 °FMostly cloudy.6 mph85%29.87 "Hg6 mi
6:58 AM64 °FOvercast.10 mph84%29.84 "Hg10 mi
5:58 AM64 °FOvercast.8 mph84%29.83 "Hg10 mi
4:58 AM63 °FOvercast.9 mph83%29.83 "Hg10 mi
3:58 AM64 °FClear.9 mph80%29.78 "Hg10 mi
2:58 AM66 °FClear.12 mph75%29.77 "Hg10 mi
1:58 AM67 °FClear.10 mph72%29.77 "Hg10 mi
12:58 AM70 °FPassing clouds.13 mph69%29.76 "Hg10 mi
11:58 PM
Jul 27
71 °FPassing clouds.12 mph69%29.76 "Hg10 mi
10:58 PM73 °FPassing clouds.9 mph67%29.76 "Hg10 mi
9:58 PM73 °FClear.14 mph77%29.74 "Hg10 mi
8:58 PM71 °FSunny.7 mph90%29.71 "Hg10 mi
7:58 PM72 °FPassing clouds.6 mph89%29.71 "Hg10 mi
6:58 PM78 °FBroken clouds.10 mph85%29.70 "Hg10 mi
5:58 PM76 °FBroken clouds.12 mph88%29.69 "Hg10 mi
4:58 PM76 °FOvercast.16 mph86%29.70 "Hg10 mi
3:58 PM77 °FBroken clouds.17 mph83%29.71 "Hg10 mi
Weather by CustomWeather, © 2014

See weather overviewHow to use our weather pages